[[{"header":{"parameterUnit":"m.s-1","parameterCategory":1,"la1":30.2991,"la2":30.254,"lo1":-89.0895,"lo2":-89.0444,"dy":0.0017,"dx":0.0017,"nx":28,"ny":28,"refTime":"2024-12-04T09:00:00:Z","depth":0,"parameterNumber":2,"parameterNumberName":"U-component_of_WINDS"},"data":[0,0,0,0,0,0,0,0,0,0,0,0,0,0,0,0,0,0,0,0,0,0,0,0,0,0,0,0,0,0,0,0,0,0,0,0,0,0,0,0,0,0,0,0,0,0,0,0,0,0,0,0,0,0,0,0,0,0,-2.5248,-2.5251,0,-2.5544,-2.5547,-2.5551,-2.5743,-2.5744,-2.5745,-2.5746,-2.6046,-2.6052,-2.6059,0,0,0,0,0,0,0,0,0,0,0,0,0,-2.4847,-2.4853,-2.5248,-2.5251,-2.5255,-2.5543,-2.5548,-2.5552,-2.5742,-2.5744,-2.5745,-2.5747,-2.6043,-2.6052,-2.606,0,0,0,0,0,0,0,0,0,0,0,0,0,-2.5069,-2.4855,-2.5247,-2.5385,-2.5401,-2.5543,-2.5548,-2.5553,-2.5742,-2.5744,-2.5746,-2.5748,-2.6041,-2.6051,-2.6061,-2.6088,0,0,-2.6092,-2.6097,0,0,0,0,0,0,0,0,-2.5057,-2.5084,-2.5361,-2.5376,-2.5394,-2.5608,-2.5516,-2.5732,-2.5742,-2.5612,-2.5746,-2.5748,-2.5898,-2.5921,-2.5972,-2.6102,-2.6114,-2.6093,-2.6099,-2.6104,-2.6107,0,0,0,0,0,0,0,-2.5041,-2.5072,-2.5365,-2.5365,-2.5385,-2.5432,-2.5466,-2.5558,-2.5741,-2.5624,-2.5638,-2.5671,-2.5908,-2.5962,-2.598,-2.6119,-2.6093,-2.6102,-2.6108,-2.6112,-2.6287,-2.6285,0,0,0,0,0,0,-2.5004,-2.5058,-2.5356,-2.5374,-2.5226,-2.5438,-2.5476,-2.5537,-2.5741,-2.5774,-2.5669,-2.5679,-2.5943,-2.5968,-2.5992,-2.6035,-2.6104,-2.6113,-2.6119,-2.6288,-2.6286,-2.6285,0,0,0,0,0,0,-2.4995,-2.5029,-2.5344,-2.522,-2.5264,-2.5443,-2.5511,-2.5542,-2.5597,-2.5775,-2.5809,-2.569,-2.5946,-2.5977,-2.6063,-2.6048,-2.6118,-2.6127,-2.629,-2.6287,-2.6285,-2.6122,0,0,0,0,0,0,-2.4982,-2.5024,-2.5036,-2.5219,-2.527,-2.5409,-2.551,-2.5547,-2.5614,-2.563,-2.5804,-2.5835,-2.5949,-2.6046,-2.6073,-2.6064,-2.6135,-2.6292,-2.6289,-2.6286,-2.613,-2.6115,-2.6102,0,0,0,0,0,-2.4967,-2.4977,-2.5035,-2.507,-2.5288,-2.5408,-2.5437,-2.5569,-2.5612,-2.5625,-2.5741,-2.5829,-2.6047,-2.6053,-2.6085,-2.6078,-2.6293,-2.629,-2.6286,-2.6136,-2.6118,-2.6102,0,0,0,0,0,0,-2.4785,-2.5004,-2.507,-2.514,-2.5254,-2.544,-2.546,-2.5546,-2.5649,-2.5659,-2.5819,-2.5857,-2.5925,-2.6012,-2.6015,-2.6116,-2.6181,-2.6183,-2.6055,-2.604,-2.6026,-2.6001,-2.6144,0,0,0,0,0,-2.4754,-2.4833,-2.502,-2.5063,-2.5118,-2.5279,-2.5336,-2.5429,-2.5553,-2.5601,-2.5723,-2.5839,-2.5935,-2.5993,-2.609,-2.6146,-2.6186,-2.6157,-2.6143,-2.6131,-2.6129,-2.6165,-2.6154,-2.6273,-2.6273,-2.6273,0,0,-2.4688,-2.4817,-2.4857,-2.503,-2.5129,-2.5207,-2.5318,-2.5395,-2.5454,-2.5613,-2.57,-2.5794,-2.5935,-2.6005,-2.6042,-2.6079,-2.6107,-2.6127,-2.6116,-2.6121,-2.616,-2.6148,-2.6138,-2.6271,-2.6271,-2.6272,0,0,-2.4607,-2.4714,-2.4761,-2.486,-2.501,-2.5118,-2.5129,-2.5304,-2.5372,-2.5464,-2.5584,-2.5658,-2.5818,-2.5913,-2.5982,-2.5943,-2.6027,-2.5971,-2.5896,-2.5928,-2.5919,-2.5911,-2.5894,-2.5886,-2.597,-2.597,-2.597,0,-2.4505,-2.4628,-2.4774,-2.4846,-2.4917,-2.5069,-2.5117,-2.5206,-2.5379,-2.5425,-2.5465,-2.5671,-2.5776,-2.587,-2.5861,-2.5913,-2.593,-2.5948,-2.5909,-2.5902,-2.5897,-2.5883,-2.5876,-2.5962,-2.5962,-2.5963,-2.5964,0,-2.4494,-2.4578,-2.4599,-2.4763,-2.4839,-2.4898,-2.5053,-2.5113,-2.5201,-2.5305,-2.5396,-2.553,-2.5656,-2.5687,-2.5773,-2.5794,-2.5812,-2.5879,-2.5946,-2.5875,-2.5864,-2.586,-2.595,-2.5953,-2.5955,-2.5957,0,0,-2.4298,-2.4548,-2.4553,-2.463,-2.4809,-2.4876,-2.4944,-2.507,-2.5116,-2.5233,-2.5292,-2.5427,-2.549,-2.5569,-2.5668,-2.5697,-2.5655,-2.5761,-2.5767,-2.5733,-2.5684,-2.5628,-2.5619,-2.5715,-2.5715,-2.5715,-2.5671,0,-2.424,-2.4368,-2.4505,-2.4585,-2.4663,-2.4811,-2.487,-2.4986,-2.5087,-2.5168,-2.528,-2.5371,-2.545,-2.5498,-2.5535,-2.5652,-2.5646,-2.5658,-2.5769,-2.5771,-2.5722,-2.5614,-2.5555,-2.5506,-2.5668,-2.5667,-2.5667,0,-2.4187,-2.4298,-2.4385,-2.4559,-2.4598,-2.4647,-2.4775,-2.4852,-2.4988,-2.506,-2.5149,-2.5256,-2.5335,-2.5398,-2.5508,-2.5513,-2.5568,-2.5633,-2.5635,-2.5644,-2.5709,-2.5616,-2.5494,-2.5484,-2.5662,-2.5662,-2.5663,0,-2.4029,-2.4202,-2.4276,-2.4339,-2.4545,-2.4576,-2.4663,-2.4802,-2.4869,-2.4982,-2.5027,-2.5147,-2.5211,-2.5301,-2.5438,-2.5472,-2.5532,-2.5607,-2.5591,-2.5587,-2.5591,-2.5587,-2.547,-2.5636,-2.5636,-2.5636,-2.5636,0,-2.3946,-2.3992,-2.4209,-2.4253,-2.4311,-2.447,-2.4522,-2.4623,-2.4746,-2.4813,-2.4951,-2.501,-2.519,-2.5272,-2.5381,-2.5453,-2.5483,-2.5541,-2.5568,-2.5525,-2.5516,-2.5558,-2.5562,-2.5634,-2.5635,-2.5635,-2.5635,0,-2.3775,-2.3923,-2.4013,-2.4203,-2.4252,-2.4285,-2.4448,-2.4497,-2.461,-2.4693,-2.4722,-2.4895,-2.4999,-2.5147,-2.5296,-2.5369,-2.5424,-2.5472,-2.5377,-2.5392,-2.5366,-2.5364,-2.5266,-2.526,-2.5433,-2.5431,-2.543,0,-2.3708,-2.3747,-2.3943,-2.3999,-2.4082,-2.417,-2.4241,-2.4401,-2.4469,-2.463,-2.4659,-2.4775,-2.4874,-2.5034,-2.5173,-2.5288,-2.5335,-2.5294,-2.5352,-2.5308,-2.5329,-2.5321,-2.5325,-2.5276,-2.5273,-2.5271,-2.5269,0,-2.3571,-2.3644,-2.3741,-2.3864,-2.3945,-2.405,-2.4161,-2.4199,-2.4384,-2.4453,-2.4562,-2.464,-2.4794,-2.4905,-2.504,-2.5131,-2.5229,-2.5251,-2.5253,-2.5205,-2.5146,-2.5173,-2.5332,-2.525,-2.5252,-2.5254,-2.5255,-2.5255,-2.3447,-2.3489,-2.3634,-2.3738,-2.384,-2.3941,-2.3997,-2.4118,-2.4212,-2.4349,-2.4441,-2.4544,-2.4683,-2.4875,-2.4962,-2.5045,-2.5085,-2.5088,-2.5088,-2.5084,-2.5067,-2.514,-2.5071,-2.5072,-2.5073,-2.5073,-2.5074,0,-2.3313,-2.3415,-2.351,-2.3662,-2.3744,-2.3837,-2.3966,-2.4027,-2.4117,-2.424,-2.4337,-2.4463,-2.4574,-2.4724,-2.4846,-2.4884,-2.4932,-2.491,-2.4905,-2.4924,-2.5027,-2.5011,-2.4869,-2.4869,-2.4869,-2.4869,-2.4869,-2.4869,-2.3252,-2.3327,-2.3417,-2.3546,-2.3649,-2.3752,-2.3817,-2.3912,-2.4011,-2.4146,-2.4239,-2.4339,-2.4473,-2.4607,-2.4712,-2.4755,-2.479,-2.4752,-2.4807,-2.4898,-2.4916,-2.4934,-2.492,-2.476,-2.476,-2.4697,-2.4696,-2.4695]},{"header":{"parameterUnit":"m.s-1","parameterCategory":1,"la1":30.2991,"la2":30.254,"lo1":-89.0895,"lo2":-89.0444,"dy":0.0017,"dx":0.0017,"nx":28,"ny":28,"refTime":"2024-12-04T09:00:00:Z","depth":0,"parameterNumber":3,"parameterNumberName":"V-component_of_WINDS"},"data":[0,0,0,0,0,0,0,0,0,0,0,0,0,0,0,0,0,0,0,0,0,0,0,0,0,0,0,0,0,0,0,0,0,0,0,0,0,0,0,0,0,0,0,0,0,0,0,0,0,0,0,0,0,0,0,0,0,0,2.0549,2.0553,0,2.0873,2.0876,2.088,2.0997,2.0996,2.0995,2.0994,2.1325,2.1334,2.1344,0,0,0,0,0,0,0,0,0,0,0,0,0,2.0033,2.0042,2.0549,2.0553,2.0557,2.0872,2.0876,2.0881,2.0998,2.0996,2.0995,2.0994,2.1321,2.1333,2.1345,0,0,0,0,0,0,0,0,0,0,0,0,0,2.0296,2.0045,2.0548,2.0653,2.0666,2.0871,2.0877,2.0882,2.0998,2.0996,2.0995,2.0993,2.1317,2.1332,2.1346,2.147,0,0,2.1391,2.1398,0,0,0,0,0,0,0,0,2.0281,2.0315,2.0634,2.0646,2.0661,2.0893,2.0816,2.1079,2.0998,2.0872,2.0994,2.0992,2.1182,2.1208,2.1272,2.1486,2.15,2.1393,2.1402,2.1408,2.1412,0,0,0,0,0,0,0,2.0263,2.0302,2.0677,2.0638,2.0655,2.0684,2.072,2.0866,2.1032,2.0883,2.0892,2.0929,2.1189,2.1258,2.1281,2.1505,2.1392,2.1405,2.1414,2.142,2.184,2.1842,0,0,0,0,0,0,2.0227,2.0286,2.0667,2.0687,2.0463,2.0695,2.0735,2.082,2.1031,2.1062,2.093,2.0933,2.1233,2.1264,2.1293,2.1456,2.1408,2.1422,2.143,2.1838,2.1841,2.1843,0,0,0,0,0,0,2.0216,2.026,2.0654,2.0489,2.0542,2.0706,2.08,2.0827,2.0896,2.1067,2.1097,2.0969,2.1233,2.1272,2.1426,2.1469,2.1428,2.1442,2.1835,2.1839,2.1842,2.178,0,0,0,0,0,0,2.02,2.0255,2.0304,2.0489,2.055,2.0782,2.0803,2.0835,2.0921,2.0929,2.1112,2.1141,2.1235,2.1404,2.1441,2.1489,2.1453,2.1832,2.1837,2.1841,2.178,2.1781,2.1783,0,0,0,0,0,2.0181,2.0273,2.0306,2.0351,2.0614,2.0784,2.0819,2.0926,2.0924,2.0975,2.1085,2.1135,2.1457,2.1418,2.1461,2.1514,2.183,2.1835,2.1841,2.1779,2.1781,2.1783,0,0,0,0,0,0,2.0088,2.0299,2.0338,2.0492,2.0619,2.0803,2.0871,2.0924,2.1054,2.1055,2.1182,2.1222,2.1367,2.1455,2.1409,2.1647,2.1647,2.1661,2.1585,2.1589,2.159,2.1568,2.1465,0,0,0,0,0,2.0085,2.0205,2.0383,2.0502,2.0563,2.0706,2.0783,2.0855,2.0992,2.1046,2.1167,2.1297,2.1429,2.1513,2.1642,2.1791,2.1835,2.1848,2.185,2.185,2.1863,2.1952,2.1961,2.186,2.186,2.186,0,0,2.0081,2.0211,2.0279,2.0486,2.0593,2.0716,2.075,2.0877,2.097,2.1065,2.122,2.1312,2.1467,2.1619,2.1693,2.1698,2.19,2.1857,2.1856,2.1869,2.1958,2.1968,2.1976,2.1864,2.1863,2.1863,0,0,2.0137,2.0246,2.0359,2.0466,2.0627,2.0721,2.0748,2.0925,2.0991,2.1147,2.1222,2.1333,2.1555,2.1663,2.1747,2.1844,2.1896,2.1882,2.1893,2.1978,2.1986,2.1994,2.2034,2.2045,2.1892,2.1892,2.1892,0,2.0112,2.03,2.041,2.0535,2.0625,2.0716,2.0833,2.093,2.1125,2.1186,2.1187,2.147,2.158,2.1762,2.1785,2.1848,2.1885,2.1864,2.1976,2.1985,2.1994,2.2033,2.2047,2.189,2.189,2.189,2.1891,0,2.0263,2.0392,2.0464,2.0652,2.0749,2.0868,2.0997,2.1083,2.1144,2.1238,2.1398,2.1532,2.1693,2.174,2.1801,2.1931,2.1929,2.1951,2.1955,2.2,2.2039,2.2054,2.1887,2.1887,2.1888,2.1889,0,0,2.0273,2.052,2.0545,2.0633,2.0818,2.092,2.1043,2.1201,2.1273,2.1403,2.1513,2.1698,2.1721,2.1816,2.189,2.1964,2.2038,2.1978,2.1984,2.1989,2.2194,2.218,2.2195,2.2071,2.2074,2.2076,2.2183,0,2.0358,2.0585,2.0687,2.0868,2.0991,2.1078,2.1187,2.1312,2.1402,2.1519,2.1618,2.175,2.1767,2.1826,2.1903,2.2012,2.2081,2.2005,2.2177,2.2182,2.2142,2.2215,2.2201,2.2295,2.2198,2.2201,2.2203,0,2.0488,2.0621,2.0814,2.0987,2.1042,2.1137,2.1292,2.1401,2.1545,2.1606,2.1712,2.1783,2.1917,2.1907,2.2095,2.2041,2.2117,2.2181,2.2187,2.2212,2.2199,2.2247,2.2327,2.2343,2.2227,2.2225,2.2223,0,2.0482,2.0708,2.0855,2.0926,2.113,2.1196,2.1283,2.1425,2.1514,2.1648,2.1707,2.1853,2.1935,2.2047,2.2156,2.2137,2.2336,2.2333,2.2393,2.239,2.2435,2.2432,2.2534,2.2473,2.2473,2.2473,2.2472,0,2.0569,2.0685,2.0856,2.0946,2.1079,2.1195,2.1324,2.1418,2.1544,2.1655,2.1737,2.1839,2.1974,2.2094,2.2179,2.2325,2.2359,2.2414,2.2437,2.2411,2.2405,2.2467,2.2465,2.2477,2.2476,2.2475,2.2474,0,2.0588,2.0705,2.0872,2.1051,2.1098,2.1189,2.1343,2.1435,2.1528,2.1668,2.1707,2.1854,2.2,2.2118,2.2307,2.2365,2.2519,2.2541,2.2471,2.2484,2.2539,2.2535,2.269,2.2718,2.2631,2.2632,2.2632,0,2.0638,2.073,2.0919,2.1,2.1088,2.1216,2.1307,2.1424,2.1516,2.1688,2.1759,2.191,2.2038,2.2266,2.239,2.2536,2.2567,2.261,2.2589,2.2562,2.2575,2.2571,2.2583,2.2614,2.2615,2.2615,2.2615,0,2.0718,2.0772,2.0901,2.1051,2.1159,2.1282,2.1407,2.1468,2.1608,2.1707,2.1858,2.1957,2.2151,2.2302,2.2461,2.2552,2.2609,2.262,2.2643,2.2621,2.2579,2.2608,2.2484,2.2618,2.2617,2.2617,2.2617,2.2617,2.0759,2.0846,2.0994,2.1136,2.1242,2.1358,2.1454,2.156,2.1687,2.1856,2.1916,2.2071,2.2214,2.2434,2.2525,2.2649,2.2655,2.2686,2.2695,2.2703,2.2703,2.2553,2.2677,2.2677,2.2678,2.2678,2.2678,0,2.0848,2.0947,2.1076,2.125,2.1362,2.1403,2.1544,2.1636,2.1772,2.19,2.2025,2.2198,2.2345,2.248,2.2633,2.2706,2.2736,2.2743,2.2742,2.2763,2.2686,2.2654,2.2716,2.2716,2.2716,2.2716,2.2716,2.2716,2.0907,2.1059,2.1131,2.1336,2.1435,2.1589,2.1667,2.1775,2.1878,2.2069,2.2192,2.2278,2.2411,2.2574,2.2711,2.2747,2.2802,2.2803,2.2847,2.2773,2.2768,2.2763,2.2734,2.2813,2.2813,2.2915,2.2916,2.2917]}]]